CAPE
0 0 0 0 0 0 0 0 0 0 0 0 0 0 0 0 0 0 0 0 42 186 1048 793 1065 1181 1652 474 400 450 142 54 51 107 139 229 1 0 0 1 6 47 6 23 36
0 0 0 0 0 0 0 0 0 0 0 0 0 0 0 0 0 0 0 0 0 110 1134 146 27 722 654 315 256 172 99 105 105 59 51 172 19 2 3 38 7 0 29 50 3
0 0 0 0 0 0 0 0 0 0 0 0 0 0 0 0 0 0 0 0 0 39 379 0 2 226 353 262 340 150 186 152 159 271 232 185 75 100 195 77 43 16 48 47 34
0 0 0 0 0 0 0 0 0 0 0 0 0 0 0 0 0 0 0 0 0 230 163 0 0 191 319 276 383 247 255 299 403 356 383 475 316 112 91 20 25 13 38 43 23
0 0 0 0 0 0 0 0 0 0 0 0 0 0 0 0 0 0 0 0 1 38 5 0 14 157 246 323 361 420 471 423 543 510 516 509 470 193 174 0 0 0 0 5 7
0 0 0 0 0 0 0 0 0 0 0 0 0 0 0 0 0 0 0 0 0 0 0 0 7 53 328 289 361 375 491 586 609 669 681 603 540 395 319 0 0 0 0 0 0
0 0 0 0 0 0 0 0 0 0 0 0 0 0 0 0 0 0 0 0 0 0 0 0 0 33 165 186 342 348 342 459 582 590 499 665 712 719 452 2 0 0 46 83 146
0 0 0 0 0 0 0 0 0 0 0 0 0 0 0 0 0 0 0 0 0 0 0 0 0 18 177 231 265 317 335 413 297 415 411 546 751 756 542 77 4 4 145 163 297
0 0 0 0 0 0 0 0 0 0 0 0 0 0 0 0 0 0 0 0 0 0 0 0 0 9 140 225 239 289 271 279 280 358 504 518 781 826 738 350 111 105 146 191 326
0 0 0 0 0 0 0 0 0 0 0 0 0 0 0 0 0 0 0 0 0 0 0 0 0 5 80 129 0 124 219 177 191 308 270 342 647 819 891 681 354 319 382 302 409
0 0 0 0 0 0 0 0 0 0 0 0 0 0 0 0 0 0 0 0 0 0 0 0 0 0 71 97 123 114 182 174 100 42 387 393 619 703 841 886 680 474 484 515 501
0 0 0 0 0 0 0 0 0 0 0 0 0 0 0 0 0 0 0 0 0 0 0 0 0 0 9 114 140 105 200 214 103 108 118 347 293 708 830 915 856 712 578 586 543
0 0 0 0 0 0 0 0 0 0 0 0 0 0 0 0 0 0 0 0 0 0 0 0 0 0 0 59 125 88 157 206 93 39 41 88 77 410 769 812 899 809 760 661 655
0 0 0 0 0 0 0 0 0 0 0 0 0 0 0 0 0 0 0 0 0 0 0 0 0 0 0 0 69 64 90 76 27 26 85 28 1 0 535 826 822 855 902 912 817
0 0 0 0 0 0 0 0 0 0 0 0 0 0 0 0 0 0 0 0 0 0 0 0 0 0 0 0 0 48 98 60 30 0 1 7 31 287 377 677 796 848 854 933 978
0 0 0 0 0 0 0 0 0 0 0 0 0 0 0 0 0 0 0 0 0 0 0 0 0 0 0 0 0 0 21 21 1 0 3 0 64 193 73 570 582 814 836 862 915
0 0 0 0 0 0 0 0 0 0 0 0 0 0 0 0 0 0 0 0 0 0 0 0 0 0 0 0 0 0 0 0 0 1 4 31 78 181 19 107 92 155 707 867 936
0 0 0 0 0 0 0 0 0 0 0 0 0 0 0 0 0 0 0 0 0 0 0 0 0 0 0 0 0 0 0 0 0 1 37 3 45 38 91 62 166 137 394 792 894
0 0 0 0 0 0 0 0 0 0 0 0 0 0 0 0 0 0 0 0 0 0 0 0 0 0 0 0 0 0 0 0 0 0 49 11 22 27 39 60 196 419 585 721 819
0 0 0 0 0 0 0 0 0 0 0 0 0 0 2 0 0 0 0 0 0 0 0 0 0 0 0 0 0 0 0 0 0 0 7 46 7 40 69 29 181 482 683 729 768
0 0 0 0 0 0 0 0 0 0 0 0 0 0 0 1 0 0 0 0 0 0 0 0 0 0 0 0 0 0 0 0 0 0 0 47 62 39 0 3 44 529 729 764 829
0 0 0 0 0 0 0 0 0 0 0 0 0 0 0 0 0 0 0 0 0 0 0 0 0 0 0 0 0 0 0 0 0 0 0 1 1 0 0 34 268 677 795 926 893
0 0 0 0 0 0 0 0 0 0 0 0 0 0 0 0 0 0 0 0 0 0 0 0 0 0 0 0 0 0 0 0 0 0 10 47 68 10 3 192 625 895 1220 1559 1380
0 0 0 0 0 0 0 0 0 0 0 0 0 0 0 0 0 2 0 0 0 0 0 0 0 0 0 0 0 0 0 0 0 1 35 22 1 72 42 196 803 1202 1619 1700 1595
0 0 0 0 0 0 0 0 0 0 0 0 0 0 0 0 26 0 0 0 0 0 0 0 0 0 0 0 0 0 0 0 0 0 2 19 33 5 120 325 829 1481 1877 1693 1623
0 0 0 0 0 0 0 0 0 0 0 0 0 0 0 4 137 272 185 172 58 0 0 0 0 0 0 0 0 0 0 0 0 0 0 0 4 329 359 581 925 1647 1918 1822 1765
0 0 0 0 0 0 0 0 0 0 0 0 1 11 16 40 133 120 84 128 168 38 0 0 0 0 0 0 0 0 0 0 0 0 0 0 237 591 544 898 1140 1713 1872 1884 1967
CIN
0 0 0 0 0 0 0 0 0 0 0 0 0 0 0 0 0 0 0 0 -138 -436 -333 -114 -87 -58 -37 -6 -23 -5 -5 -5 -6 -2 -6 -5 -6 0 0 -44 -126 -73 -126 -164 -177
0 0 0 0 0 0 0 0 0 0 0 0 0 0 0 0 0 0 0 0 0 -498 -136 -135 -44 -14 -5 -5 -8 -3 -14 -24 -7 -3 -25 -12 -71 -68 -63 -90 -158 0 -138 -168 -150
0 0 0 0 0 0 0 0 0 0 0 0 0 0 0 0 0 0 0 0 0 -576 -124 0 -11 -9 -3 -3 -4 -6 -19 -12 -12 -4 -2 -5 -49 -36 -4 -25 -109 -149 -167 -191 -205
0 0 0 0 0 0 0 0 0 0 0 0 0 0 0 0 0 0 0 0 0 -390 -177 0 0 -4 -3 -7 -2 -5 -4 -11 -12 -27 -3 -2 -2 -9 -19 -45 -115 -177 -181 -186 -211
0 0 0 0 0 0 0 0 0 0 0 0 0 0 0 0 0 0 0 0 -201 -401 -176 0 -32 -7 -9 -3 -4 -6 -10 -16 -23 -26 -11 -14 -2 -21 -40 0 0 0 0 -189 -221
0 0 0 0 0 0 0 0 0 0 0 0 0 0 0 0 0 0 0 0 0 0 0 0 -76 -73 -3 -3 -6 -7 -4 -17 -16 -19 -21 -5 -17 -16 -43 0 0 0 0 0 0
0 0 0 0 0 0 0 0 0 0 0 0 0 0 0 0 0 0 0 0 0 0 0 0 0 -98 -18 -17 -18 -20 -6 -13 -17 -31 -33 -12 -30 -2 -53 -78 0 0 -155 -101 -56
0 0 0 0 0 0 0 0 0 0 0 0 0 0 0 0 0 0 0 0 0 0 0 0 0 -110 -22 -38 -26 -5 -5 -4 -13 -20 -32 -24 -6 -27 -59 -95 -174 -204 -101 -84 -41
0 0 0 0 0 0 0 0 0 0 0 0 0 0 0 0 0 0 0 0 0 0 0 0 0 -75 -46 -42 -11 -5 -12 -5 -14 -16 -19 -19 -19 -38 -52 -70 -99 -107 -108 -106 -66
0 0 0 0 0 0 0 0 0 0 0 0 0 0 0 0 0 0 0 0 0 0 0 0 0 -138 -72 -7 0 -14 -8 -3 -4 -10 -29 -6 -16 -46 -54 -47 -75 -85 -94 -110 -76
0 0 0 0 0 0 0 0 0 0 0 0 0 0 0 0 0 0 0 0 0 0 0 0 0 0 -44 -26 -45 -69 -3 -6 -65 -135 -10 -2 -6 -35 -61 -49 -66 -73 -83 -88 -75
0 0 0 0 0 0 0 0 0 0 0 0 0 0 0 0 0 0 0 0 0 0 0 0 0 0 -98 -19 -17 -38 -2 -9 -56 -88 -71 -3 -2 -13 -44 -57 -50 -60 -78 -77 -82
0 0 0 0 0 0 0 0 0 0 0 0 0 0 0 0 0 0 0 0 0 0 0 0 0 0 0 -72 -22 -26 -4 -8 -35 -108 -102 -16 -14 -7 -35 -60 -45 -53 -54 -68 -84
0 0 0 0 0 0 0 0 0 0 0 0 0 0 0 0 0 0 0 0 0 0 0 0 0 0 0 0 -47 -21 -18 -25 -100 -102 -16 -27 -40 0 -11 -51 -75 -68 -40 -35 -61
0 0 0 0 0 0 0 0 0 0 0 0 0 0 0 0 0 0 0 0 0 0 0 0 0 0 0 0 0 -32 -41 -51 -73 -9 -77 -35 -6 -15 -5 -5 -45 -63 -64 -41 -52
0 0 0 0 0 0 0 0 0 0 0 0 0 0 0 0 0 0 0 0 0 0 0 0 0 0 0 0 0 0 -102 -98 -41 0 -61 0 -8 -90 -22 -11 -5 -31 -27 -47 -34
0 0 0 0 0 0 0 0 0 0 0 0 0 0 0 0 0 0 0 0 0 0 0 0 0 0 0 0 0 0 0 0 0 -2 -20 -6 -9 -81 -234 -37 -38 -22 -27 -30 -21
0 0 0 0 0 0 0 0 0 0 0 0 0 0 0 0 0 0 0 0 0 0 0 0 0 0 0 0 0 0 0 0 0 -6 -8 -45 -57 -5 -47 -33 -44 -86 -18 -29 -25
0 0 0 0 0 0 0 0 0 0 0 0 0 0 0 0 0 0 0 0 0 0 0 0 0 0 0 0 0 0 0 0 0 -11 -11 -30 -57 -41 -35 -58 -47 -31 -11 -19 -26
0 0 0 0 0 0 0 0 0 0 0 0 0 0 -2 0 0 0 0 0 0 0 0 0 0 0 0 0 0 0 0 0 0 0 -6 -7 -3 -5 -11 -39 -9 -8 -14 -11 -17
0 0 0 0 0 0 0 0 0 0 0 0 0 0 0 -1 0 0 0 0 0 0 0 0 0 0 0 0 0 0 0 0 0 0 0 -6 -11 -41 0 -11 -22 -5 -12 -5 -8
0 0 0 0 0 0 0 0 0 0 0 0 0 0 0 0 0 0 0 0 0 0 0 0 0 0 0 0 0 0 0 0 0 0 0 -1 -1 0 0 -67 -7 -8 -15 -23 -11
0 0 0 0 0 0 0 0 0 0 0 0 0 0 0 0 0 0 0 0 0 0 0 0 0 0 0 0 0 0 0 0 0 0 -6 -11 -6 -18 -5 -13 -14 -16 -34 -50 -35
0 0 0 0 0 0 0 0 0 0 0 0 0 0 0 0 0 -1 0 0 0 0 0 0 0 0 0 0 0 0 0 0 0 -5 -8 -7 -9 -6 -13 -20 -29 -22 -26 -38 -42
0 0 0 0 0 0 0 0 0 0 0 0 0 0 0 0 -2 0 0 0 0 0 0 0 0 0 0 0 0 0 0 0 0 0 -2 -14 -10 -11 -4 -6 -35 -36 -25 -36 -43
0 0 0 0 0 0 0 0 0 0 0 0 0 0 0 -41 -6 -5 -6 -1 -5 0 0 0 0 0 0 0 0 0 0 0 0 0 0 0 -9 -10 -21 -19 -29 -30 -30 -36 -52
0 0 0 0 0 0 0 0 0 0 0 0 -110 -146 -93 -29 -121 -109 -89 -63 -34 -35 0 0 0 0 0 0 0 0 0 0 0 0 0 0 -5 -18 -23 -33 -40 -25 -27 -37 -41
Wind_Speed
25 25 25 25 25 25 24 23 21 20 19 18 18 19 20 21 21 19 18 17 17 18 15 16 15 16 17 18 15 13 14 26 26 26 23 25 22 17 23 26 24 20 25 26 27
26 26 27 27 28 28 28 27 26 24 22 21 19 19 19 21 20 22 21 20 20 19 17 12 13 15 17 18 10 4 15 25 15 25 26 24 23 26 24 22 22 24 25 26 27
27 28 28 29 29 30 30 30 29 27 25 23 22 20 20 20 20 21 20 22 22 21 16 11 11 12 19 22 17 14 24 26 19 11 26 26 25 23 22 21 21 22 25 28 27
28 29 29 30 31 31 31 32 31 29 28 26 24 22 22 19 7 16 19 24 24 22 18 14 10 11 21 22 21 25 24 25 25 22 25 21 24 23 7 18 22 22 25 26 26
29 30 30 31 31 32 32 32 30 30 28 27 25 23 20 5 14 12 20 26 26 24 20 15 10 10 18 20 23 24 23 23 24 24 24 22 23 23 24 24 25 26 25 23 24
31 31 32 32 32 33 33 32 31 29 26 24 22 22 15 20 15 18 19 21 25 24 22 19 13 11 20 17 8 22 23 21 21 22 21 21 23 22 24 25 26 27 26 24 23
31 32 32 32 33 33 34 32 30 27 24 21 20 19 22 21 16 15 20 21 25 27 24 21 18 13 15 20 20 22 22 21 20 19 19 20 22 21 23 24 25 25 25 24 23
31 32 32 32 32 33 33 32 28 25 23 20 19 20 18 15 18 16 13 8 28 29 27 21 21 17 13 18 18 18 18 18 17 17 17 17 20 20 22 23 24 23 23 23 23
32 32 32 32 32 32 31 30 26 23 21 19 19 16 18 14 13 8 5 6 1 26 28 24 24 20 14 19 19 19 16 17 17 16 17 16 19 19 20 21 22 22 21 21 22
33 33 32 31 31 31 30 27 21 23 17 18 22 19 18 15 12 15 11 19 9 18 30 27 23 22 21 22 18 14 16 16 16 16 16 16 18 18 19 20 20 21 21 21 20
33 33 33 32 31 29 27 21 20 17 14 24 25 22 18 17 17 18 11 12 20 12 19 22 17 25 24 22 18 15 15 14 15 16 15 14 15 15 18 19 18 20 20 20 21
32 33 32 33 31 27 24 21 19 22 25 26 21 25 26 20 19 15 11 12 12 9 5 9 22 26 26 20 14 10 13 11 13 12 15 12 11 13 15 17 18 18 18 19 19
32 32 32 32 30 23 21 19 21 24 19 11 14 19 17 14 21 13 13 14 16 19 10 27 9 31 27 20 20 17 20 15 14 16 12 8 7 7 14 17 17 16 16 17 18
30 30 29 30 22 23 17 19 23 20 19 7 9 11 12 13 20 18 12 17 22 26 24 23 30 18 16 12 5 23 4 13 11 6 12 11 0 30 18 16 16 16 16 16 17
30 29 28 25 25 17 19 22 23 16 17 11 12 14 7 6 10 13 16 20 23 21 23 19 20 14 28 22 15 29 20 19 10 4 18 10 4 10 7 14 11 16 17 17 16
30 29 28 15 6 15 23 24 18 10 11 12 13 9 5 2 14 10 12 20 23 25 25 27 17 24 28 27 27 25 31 19 1 9 14 20 11 9 9 8 12 16 17 17 17
32 30 27 24 14 19 23 16 8 4 14 11 11 8 5 5 6 10 11 17 19 21 22 24 25 22 25 24 20 16 17 15 3 2 2 9 9 8 4 19 14 12 14 17 18
33 30 13 5 18 20 17 7 8 14 12 13 12 9 6 5 7 7 10 16 23 23 27 22 24 22 15 26 20 17 17 10 9 7 8 15 10 13 11 14 14 15 11 16 18
31 17 13 13 7 12 8 4 5 12 14 15 10 6 5 5 16 7 7 14 20 33 30 25 28 16 22 21 27 17 14 34 36 35 23 13 11 9 13 15 17 12 9 15 16
26 19 11 13 10 7 8 6 20 16 18 15 14 4 4 4 5 8 7 18 25 23 33 27 26 16 15 22 25 31 26 12 24 26 28 15 23 16 10 12 10 9 5 12 12
18 15 12 11 6 5 6 5 14 12 14 17 17 13 18 9 5 18 17 13 19 28 26 34 23 20 19 18 20 16 24 22 29 13 20 17 7 11 8 13 14 6 5 7 9
18 16 11 8 5 3 5 14 17 20 8 16 20 23 22 15 18 26 16 18 12 22 11 28 25 27 19 20 26 24 18 30 18 20 23 26 32 21 14 16 14 5 3 4 4
19 20 11 9 11 6 10 17 16 17 12 12 17 19 19 20 19 21 12 12 12 23 14 21 29 29 21 14 16 28 31 29 33 25 27 30 19 14 12 10 8 5 4 5 4
18 17 10 9 20 22 15 13 13 11 24 19 21 23 24 23 19 16 12 14 20 25 17 28 31 32 26 16 14 17 32 35 35 34 29 22 22 11 8 6 7 5 4 6 8
15 18 17 12 14 16 22 20 13 15 13 14 20 23 21 22 17 8 16 12 11 17 21 30 32 33 33 21 20 23 20 17 33 35 33 26 16 12 4 2 4 2 3 6 9
21 21 20 26 21 20 19 22 19 17 20 17 19 12 19 23 23 19 17 20 14 12 28 33 33 33 31 18 24 24 25 5 10 29 30 28 23 12 8 6 4 3 2 7 10
20 21 21 21 22 20 19 18 20 22 23 27 20 20 24 22 24 26 26 27 27 25 18 33 34 29 24 27 21 28 22 18 25 14 26 27 13 11 10 8 3 1 4 8 9
Wind_Direction
318 315 313 309 305 302 296 290 284 276 267 259 251 248 248 255 252 192 195 216 181 113 138 121 121 128 121 115 119 142 93 49 41 64 60 91 51 30 73 94 110 141 112 110 114
317 315 313 311 309 307 303 296 290 281 272 264 255 243 242 252 221 205 225 219 157 130 152 145 111 123 106 104 140 193 12 56 18 63 79 91 61 95 91 84 103 95 100 110 118
318 315 312 310 309 308 306 303 296 287 277 266 257 248 240 241 203 194 239 229 173 161 191 194 158 141 90 71 113 16 61 86 111 150 81 86 88 123 103 86 105 100 113 121 124
317 315 313 311 309 306 304 304 301 293 283 273 262 255 249 194 44 287 245 219 189 174 199 190 161 141 56 65 100 87 80 88 94 120 91 103 102 102 264 39 99 107 117 123 128
315 313 312 310 308 307 305 303 298 295 288 282 277 273 281 62 198 329 241 197 189 185 193 202 171 149 76 76 87 93 108 106 92 100 93 107 100 92 67 75 100 111 118 120 128
313 312 311 310 308 307 306 302 299 297 297 297 292 287 302 188 301 280 265 162 180 181 201 193 187 185 84 99 279 100 89 86 100 89 98 95 87 99 87 91 100 116 124 125 128
311 310 309 308 307 306 305 303 300 299 302 308 305 298 279 260 299 294 266 166 178 204 207 213 216 188 139 64 90 109 89 96 101 99 92 101 89 87 96 101 106 117 127 129 132
309 307 307 305 303 303 303 301 299 302 306 310 309 295 292 303 289 294 289 310 207 209 222 246 219 194 177 89 109 110 119 98 85 102 87 137 94 89 107 111 116 117 123 129 131
308 305 304 302 299 299 297 296 301 307 311 312 305 302 295 311 292 301 305 326 110 184 211 243 214 187 116 170 136 108 151 75 86 105 103 140 87 104 115 116 117 126 123 124 129
308 305 302 300 297 297 292 287 319 307 319 309 294 296 291 292 293 285 284 268 289 261 217 194 183 181 182 201 285 40 62 94 24 76 128 125 82 109 120 123 125 130 130 132 131
306 304 301 299 296 293 303 325 329 330 324 292 295 289 300 294 289 273 273 273 260 271 165 171 167 186 189 201 302 322 348 57 51 35 142 111 100 109 128 133 127 134 136 140 143
303 301 299 299 296 289 302 325 335 318 304 293 297 285 279 293 283 272 264 262 263 259 194 169 183 192 197 190 273 116 148 69 58 74 182 72 75 101 131 143 138 136 137 142 144
303 301 298 295 292 304 316 329 325 317 322 340 322 301 296 283 274 269 256 252 260 262 253 191 282 227 198 184 182 173 194 323 345 304 164 32 44 89 131 147 142 142 138 140 145
296 296 295 293 306 313 325 326 318 332 325 0 358 338 313 289 275 272 260 253 261 258 259 264 253 279 182 285 299 197 109 327 356 66 257 19 108 210 146 148 141 147 149 143 144
293 291 287 288 287 328 317 310 312 335 329 352 1 343 358 302 319 270 269 252 258 263 261 268 266 274 260 267 279 259 305 299 348 136 215 190 89 120 110 144 127 146 150 155 146
290 288 288 344 67 281 297 297 316 354 342 352 353 14 27 283 293 299 262 257 258 264 262 259 274 267 261 265 266 274 251 283 85 185 211 223 168 13 286 104 108 137 153 153 150
288 282 288 295 337 309 288 317 32 26 347 349 354 21 66 357 304 292 258 250 252 257 259 263 266 272 266 270 272 282 284 299 288 218 1 187 350 355 91 186 44 83 122 151 152
287 277 337 16 302 299 311 24 349 342 350 335 337 15 26 20 316 296 272 259 253 257 262 263 262 264 273 260 269 271 273 280 319 332 190 295 347 330 89 21 8 4 103 136 143
285 327 341 341 351 320 350 341 354 340 329 318 350 33 31 5 294 308 274 269 259 245 254 268 264 267 259 264 256 270 271 219 243 255 296 325 1 333 335 338 339 6 86 130 138
309 320 337 328 325 333 313 292 307 313 310 310 297 46 40 37 345 308 298 276 261 256 247 266 268 262 262 264 259 257 274 275 269 282 283 309 297 326 341 340 358 356 68 126 133
326 328 338 343 345 315 291 295 308 326 312 298 296 323 290 333 346 273 293 288 276 255 254 246 269 265 264 262 264 269 268 272 258 290 291 304 337 330 359 319 311 10 60 109 127
318 317 341 343 332 275 277 299 307 291 321 295 284 268 271 302 293 252 287 284 293 259 241 247 259 257 271 268 261 265 271 257 276 281 288 286 272 327 343 322 303 3 54 346 45
313 307 340 321 309 295 292 296 295 293 298 301 286 278 277 280 294 273 301 306 296 252 261 251 250 255 264 273 265 261 255 258 250 273 271 272 312 342 343 326 323 337 355 20 52
317 315 325 307 288 289 296 292 290 293 273 281 273 272 264 268 276 291 303 311 269 249 266 242 239 243 256 277 281 271 254 246 250 254 263 291 281 351 340 326 331 328 23 54 70
312 308 311 316 291 287 285 289 284 288 284 286 276 267 269 268 278 313 286 311 298 267 255 235 238 238 243 280 273 271 277 257 250 244 253 255 315 334 313 43 344 342 41 68 75
298 298 305 283 293 288 281 275 278 280 277 276 269 279 271 263 268 274 281 266 291 280 246 220 235 239 247 282 267 268 263 233 266 256 255 263 285 348 320 351 10 284 63 81 89
305 297 294 293 281 280 281 274 275 273 272 261 274 275 265 274 270 263 255 253 252 259 266 212 221 243 258 253 270 255 271 278 267 280 264 271 309 324 309 312 298 170 102 95 90